• Bienvenue sur Pilotes Québec!
  • Bienvenue sur le site de Pilotes Québec, la nouvelle communauté des pilotes et aviateurs du Québec.
  • L'Antonov An-2 C-FAKA, piloté par Neil Bilodeau a fait sa première apparition sur skis dans un RV hivernal, au rendez-vous hivernal annuel Challenger à Montebello.  Encore merci Jean-Pierre pour l'image spectaculaire!
  • Calendrier des activités
  • sujets récents au forum...
  • Les nouvelles en bref...

Connexion


J'ai oublié mon mot de passe
Renvoyer l'e-mail de confirmation
 

Conditions actuelles

Click for Quebec, Quebec Forecast

METAR - Québec


2015/03/04 16:30
CYQB 041630Z 24020KT 4SM -SHSN DRSN BKN024 M03/M07 A2960 RMK CU7 SLP027

TAF - Québec


2015/03/04 12:42
TAF CYQB 041138Z 0412/0512 25015KT 6SM -SN OVC010
TEMPO 0412/0414 5SM -SN OVC008
FM041400 25020G30KT 6SM -SHSN SCT015 OVC030
TEMPO 0414/0421 21/2SM -SHSN BLSN OVC015 PROB30 0414/0421 1/4SM +SHSN BLSN VV002
FM042100 25012KT P6SM -SHSN BKN040
FM050400 28012KT P6SM FEW060
RMK NXT FCST BY 041800Z

Accueil Forum Aéroports
Région de Montréal
Région de Québec
Calendrier Ressources
Fréquences FIC de Québec
Associations et aéroclubs
Regroupements à l'échelle inter-régionnal
Aéroclubs et associations régionales
Nous joindre Publicité


Copyright © 2015, Pilotes Québec, tous droits réservés.
Protégé par les lois du copyright des États-Unis et du Canada et par des traités internationaux.